SB KEPS @ AMSAT $ORB10280.N 2Line Orbital Elements 10280.AMSAT
HR AMSAT ORBITAL ELEMENTS FOR AMATEUR SATELLITES IN NASA FORMAT FROM WA5QGD FORT WORTH,TX October 7, 2010 BID: ORB10280.N
DECODE 2-LINE ELSETS WITH THE FOLLOWING KEY: 1 AAAAAU 00 0 0 BBBBB.BBBBBBBB .CCCCCCCC 00000-0 00000-0 0 DDDZ 2 AAAAA EEE.EEEE FFF.FFFF GGGGGGG HHH.HHHH III.IIII JJ.JJJJJJJJKKKKKZ KEY: A-CATALOGNUM B-EPOCHTIME C-DECAY D-ELSETNUM E-INCLINATION F-RAAN G-ECCENTRICITY H-ARGPERIGEE I-MNANOM J-MNMOTION K-ORBITNUM Z-CHECKSUM
TO ALL RADIO AMATEURS BT
AO-07 1 07530U 74089B 10280.88907382 -.00000027 00000-0 10000-3 0 8969 2 07530 101.4006 292.3775 0012233 052.8416 307.3772 12.53579688642578 FO-29 1 24278U 96046B 10279.91936900 .00000099 00000-0 13706-3 0 04414 2 24278 098.5172 093.6288 0350488 193.8736 165.2598 13.52954027698218 SO-33 1 25509U 98061B 10279.24994438 .00000133 00000-0 12921-4 0 08093 2 25509 031.4325 240.4557 0354035 181.0691 178.9144 14.28332937623944 RS-22 1 27939U 03042A 10280.66600279 .00000094 00000-0 26705-4 0 6103 2 27939 097.8745 141.2821 0014637 066.1119 294.1635 14.63459569375407 VO-52 1 28650U 05017B 10279.55359253 -.00000216 00000-0 -20676-4 0 06162 2 28650 097.6807 328.5698 0025820 272.4978 087.3285 14.81816809293189 SO-67 1 35870U 09049F 10280.74906446 .00000636 00000-0 31623-4 0 1723 2 35870 097.3200 326.8348 0004629 070.8632 039.5840 15.21090764 58565 HO-68 1 36122U 09072B 10280.74017231 -.00000045 00000-0 00000 0 0 7355 2 36122 100.4563 339.9646 0007850 081.0027 279.1975 13.16282043 39027 UO-11 1 14781U 84021B 10280.73917600 .00000151 00000-0 27135-4 0 3588 2 14781 098.0430 332.7420 0008161 232.0187 128.0259 14.79841792428459 AO-16 1 20439U 90005D 10280.76396176 .00000038 00000-0 29703-4 0 120 2 20439 098.3458 234.3145 0010535 187.6410 172.4614 14.31877106 81495 LO-19 1 20442U 90005G 10279.76551588 -.00000009 00000-0 11899-4 0 09217 2 20442 098.3084 238.7089 0011918 184.9906 175.1161 14.32106221081520 AO-27 1 22825U 93061C 10279.73971884 .00000017 00000-0 23660-4 0 06451 2 22825 098.4961 224.8612 0007851 306.1736 053.8722 14.29310355887980 IO-26 1 22826U 93061D 10280.83502685 .00000046 00000-0 34729-4 0 3822 2 22826 098.4910 226.4902 0008177 296.4816 063.5533 14.29568386888255 GO-32 1 25397U 98043D 10279.67531697 .00000070 00000-0 48882-4 0 03011 2 25397 098.3172 281.0056 0000661 355.1919 004.9245 14.23186524635909 NO-44 1 26931U 01043C 10280.49014854 .00000309 00000-0 15285-3 0 5762 2 26931 067.0521 274.6292 0005545 273.8661 086.1799 14.29615399470806 SO-50 1 27607U 02058C 10280.81954548 -.00000027 00000-0 17445-4 0 2877 2 27607 064.5595 014.3964 0042820 029.3854 330.9651 14.71584406418956 CO-55 1 27844U 03031E 10279.58010076 .00000075 00000-0 55014-4 0 09539 2 27844 098.7112 286.9661 0009102 207.3664 152.7035 14.20734523376902 CO-57 1 27848U 03031J 10279.55558340 .00000068 00000-0 51991-4 0 08981 2 27848 098.7160 286.0576 0008960 212.2977 147.7671 14.20524905376853 AO-51 1 28375U 04025K 10279.47984200 .00000035 00000-0 22763-4 0 07922 2 28375 098.0721 266.6984 0084467 118.9287 242.0414 14.40701667329535 GENESAT1 1 29655U 06058C 10216.61700559 .10637092 69904-5 33715-3 0 2265 2 29655 040.0059 067.3006 0005079 297.8744 064.7087 16.44862838207776 CP3 1 31129U 07012N 10280.65657542 .00000064 00000-0 25555-4 0 6923 2 31129 097.9291 314.1515 0101132 244.6836 114.3850 14.52312734184182 CO-65 1 32785U 08021C 10280.67197885 .00000100 00000-0 19360-4 0 8036 2 32785 097.8847 343.9723 0013921 281.1177 078.8496 14.81728519132143 KKS-1 1 33493U 09002B 10280.74178262 .00000628 00000-0 87644-4 0 9204 2 33493 098.0980 041.2791 0020817 134.7531 225.5387 14.81132234 92141 SOHLA-1 1 33496U 09002E 10279.42135948 .00000076 00000-0 21046-4 0 02242 2 33496 098.0658 027.1000 0006113 201.2386 158.8566 14.69520736091211 TISAT-1 1 36799U 10035E 10280.74609755 .00000362 00000-0 54809-4 0 1934 2 36799 098.1374 341.1256 0016024 016.5329 343.6404 14.80186402 12965 STUDSAT 1 36801U 10035G 10280.84598933 .00000944 00000-0 13287-3 0 742 2 36801 098.1404 341.1480 0014364 004.6264 355.5056 14.79693770 12978 NOAA-10 1 16969U 86073A 10279.60579992 .00000085 00000-0 52519-4 0 02308 2 16969 098.6493 307.4858 0011394 246.3570 113.6421 14.27429221251473 NOAA-11 1 19531U 88089A 10279.26179463 -.00000273 00000-0 -11868-3 0 02386 2 19531 098.7664 006.3797 0011100 187.8961 172.2031 14.14936312136848 NOAA-12 1 21263U 91032A 10279.94239149 .00000049 00000-0 39525-4 0 07336 2 21263 098.7653 293.0865 0012069 198.4966 161.5787 14.25657614008327 MET-3/5 1 21655U 91056A 10279.62651367 .00000051 00000-0 10000-3 0 09322 2 21655 082.5552 229.8884 0014997 071.9842 288.2901 13.17022604920344 MET-2/21 1 22782U 93055A 10279.29278918 -.00000022 00000-0 -33693-4 0 09048 2 22782 082.5496 164.3103 0023844 090.5074 269.8813 13.83649399863448 OKEAN-4 1 23317U 94066A 10279.73032725 .00000221 00000-0 24329-4 0 03600 2 23317 082.5374 249.7360 0020509 232.0635 127.8720 14.82870056862986 NOAA-14 1 23455U 94089A 10279.74824392 .00000027 00000-0 37647-4 0 02226 2 23455 098.8716 359.6765 0008556 281.3872 078.6334 14.13796268813264 NOAA-15 1 25338U 98030A 10279.52735765 -.00000100 00000-0 -24180-4 0 05493 2 25338 098.6304 264.5202 0011647 108.7850 251.4583 14.24857587644601 RESURS 1 25394U 98043A 10279.56104094 -.00000001 00000-0 17296-4 0 06230 2 25394 098.3038 291.5711 0000414 269.3281 090.7854 14.24211286636203 FENGYUN1 1 25730U 99025A 10279.42776622 .00000881 00000-0 53923-3 0 01542 2 25730 098.7952 241.5299 0021718 314.5551 045.3828 14.08316718587340 OKEAN-0 1 25860U 99039A 10279.83950776 .00000099 00000-0 22584-4 0 01192 2 25860 097.8476 248.8305 0001932 079.6070 280.5354 14.73668268603342 NOAA-16 1 26536U 00055A 10279.50336783 -.00000216 00000-0 -91526-4 0 00254 2 26536 099.1681 299.5793 0010937 029.1804 330.9980 14.12577638517544 NOAA-17 1 27453U 02032A 10279.70300815 .00000044 00000-0 37004-4 0 00178 2 27453 098.4197 325.5865 0011875 166.6127 193.5358 14.24195986430578 NOAA-18 1 28654U 05018A 10279.67167683 .00000009 00000-0 29547-4 0 05066 2 28654 098.9607 225.6680 0015235 098.3552 261.9320 14.11395107277161 NOAA-19 1 33591U 09005A 10279.68398628 .00000248 00000-0 16158-3 0 07024 2 33591 098.7966 219.4751 0013783 337.4668 022.5891 14.11090298085630 HUBBLE 1 20580U 90037B 10280.01802476 .00000622 00000-0 34684-4 0 6562 2 20580 028.4697 229.7651 0003357 305.1190 054.9084 15.01054729921570 ISS 1 25544U 98067A 10280.80575351 .00017987 00000-0 14026-3 0 309 2 25544 051.6478 014.4306 0007682 071.6451 020.7177 15.71746973681186 CO-58 1 28895U 05043F 10280.65753610 .00000267 00000-0 65084-4 0 6986 2 28895 097.9962 161.3047 0016528 293.4161 066.5312 14.59942954263394 FALCON 1 30776U 07006E 10280.81890400 .00000815 00000-0 61037-4 0 9318 2 30776 035.4325 080.3932 0001068 011.5532 348.5209 15.03857278197020 MAST 1 31126U 07012K 10279.66590591 .00000141 00000-0 42342-4 0 09820 2 31126 097.9264 315.8510 0093503 239.6232 119.5702 14.53626024184250 CAPE1 1 31130U 07012P 10279.54940758 .00000260 00000-0 70700-4 0 00008 2 31130 097.9283 312.9342 0101137 248.7472 110.2952 14.52230498183829 COMPASS 1 32787U 08021E 10279.78017291 .00000191 00000-0 30791-4 0 07973 2 32787 097.8832 342.9381 0014705 284.3628 075.5929 14.81986727132024 AAUSAT2 1 32788U 08021F 10280.17730451 .00000467 00000-0 65294-4 0 7869 2 32788 097.8851 343.4836 0014078 284.2014 075.7606 14.82138418132096 DO-64 1 32789U 08021G 10279.76821305 .00000855 00000-0 11333-3 0 08059 2 32789 097.8915 343.6863 0014478 282.4344 077.5202 14.82342208132030 CO-66 1 32791U 08021J 10279.75144112 .00000709 00000-0 96518-4 0 07916 2 32791 097.8850 342.9094 0015042 283.2204 076.7376 14.81755928131972 RS-30 1 32953U 08025A 10280.65330176 .00000010 00000-0 00000 0 0 1092 2 32953 082.5038 319.7536 0017932 213.8295 146.1643 12.43008114107711 TACSAT-3 1 35001U 09028A 10279.41730726 .00005877 00000-0 13470-3 0 04054 2 35001 040.4564 265.4409 0020343 119.0113 241.2743 15.42957560077812 PHARMSAT 1 35002U 09028B 10279.33720443 .00005065 00000-0 11515-3 0 03811 2 35002 040.4693 263.5854 0022749 120.6450 239.6611 15.43352380077829 HAWKSAT1 1 35003U 09028C 10279.30797796 .00011887 00000-0 22660-3 0 4064 2 35003 040.4580 254.7942 0021182 142.4592 217.7713 15.47690610 77920 CP6 1 35004U 09028D 10279.29515691 .00014656 00000-0 26565-3 0 04082 2 35004 040.4628 252.9008 0020964 149.3151 210.8898 15.49006585077934 AEROCUB3 1 35005U 09028E 10279.29972649 .00066917 00000-0 75600-3 0 04781 2 35005 040.4757 242.4799 0022220 177.5544 182.5390 15.61189019078059 CASTOR 1 35694U 09038F 10230.44082147 .07179566 12689-4 99310-4 0 6559 2 35694 051.5930 222.0149 0004218 308.0851 053.0105 16.48877011 61107 METEOR-M 1 35865U 09049A 10280.72888714 .00000176 00000-0 10000-3 0 7193 2 35865 098.7439 333.6497 0003224 050.3903 309.7549 14.21830229 54711 RS-38 1 35869U 09049E 10280.75843845 .00000177 00000-0 10000-3 0 7333 2 35869 098.7439 333.7171 0005443 043.3578 316.8015 14.21990088 54728 /EX
participants (1)
-
Ray Hoad